Location: Dompnac
(44.5644°N, 4.1026°E)
Time: 23:21:58
(UTC+00:00)

Cosmos 2082 Rocket - Pass Details

Date: 19 June 2021
Orbit: 832 x 854 km, 71.0° (Epoch: 30 July)

Event Time Altitude Azimuth Distance (km) Brightness Sun altitude
Rises 03:17:23 0° 173° (S) 3,363 5.0 -6.5°
Reaches altitude 10° 03:20:04 10° 163° (SSE) 2,433 4.4 -6.2°
Maximum altitude 03:24:50 30° 104° (ESE) 1,463 3.9 -5.5°
Drops below altitude 10° 03:29:37 10° 45° (NE) 2,450 6.5 -4.9°
Sets 03:32:19 0° 35° (NE) 3,390 7.2 -4.5°
